N853AZ KJAX-KCHS

Flight info

Callsign N853AZ
Flight time 0h 59m
Altitude 17000
Route LLIPS V1 COTAK
Aircraft B58T/L-SDFGRY/C

Departure

Time 2026-04-16 23:59
Airport Jacksonville International Airport (KJAX)

Arrival

Time 2026-04-17 00:58
Airport Charleston International Airport (KCHS)
Time Latitude Longitude Altitude Speed Heading
2026-04-16 23:32 30.49146 -81.68745 29 ft 0 kts 296°
2026-04-16 23:51 30.49149 -81.68753 29 ft 7 kts 296°
2026-04-16 23:51 30.49208 -81.68851 29 ft 22 kts 309°
2026-04-16 23:51 30.49306 -81.68863 29 ft 20 kts 75°
2026-04-16 23:51 30.49303 -81.68750 29 ft 13 kts 89°
2026-04-16 23:52 30.49305 -81.68732 29 ft 0 kts 79°
2026-04-16 23:52 30.49318 -81.68737 29 ft 8 kts 255°
2026-04-16 23:52 30.49301 -81.68739 29 ft 0 kts 139°
2026-04-16 23:53 30.49297 -81.68736 29 ft 3 kts 163°
2026-04-16 23:53 30.49278 -81.68783 29 ft 12 kts 263°
2026-04-16 23:53 30.49268 -81.68860 29 ft 17 kts 256°
2026-04-16 23:53 30.49259 -81.68897 29 ft 0 kts 256°
2026-04-16 23:54 30.49269 -81.68907 29 ft 5 kts
2026-04-16 23:54 30.49311 -81.68853 29 ft 12 kts 52°
2026-04-16 23:54 30.49364 -81.68785 29 ft 13 kts
2026-04-16 23:54 30.49376 -81.68928 29 ft 14 kts 256°
2026-04-16 23:55 30.49419 -81.68993 29 ft 18 kts 330°
2026-04-16 23:55 30.49538 -81.69077 29 ft 22 kts 330°
2026-04-16 23:55 30.49654 -81.69156 30 ft 16 kts 327°
2026-04-16 23:55 30.49673 -81.69238 30 ft 11 kts 257°
2026-04-16 23:56 30.49650 -81.69335 30 ft 14 kts 252°
2026-04-16 23:56 30.49615 -81.69448 30 ft 14 kts 252°
2026-04-16 23:56 30.49578 -81.69570 30 ft 18 kts 251°
2026-04-16 23:56 30.49532 -81.69715 29 ft 20 kts 250°
2026-04-16 23:57 30.49488 -81.69865 29 ft 16 kts 258°
2026-04-16 23:57 30.49524 -81.69953 29 ft 15 kts 343°
2026-04-16 23:57 30.49609 -81.69969 29 ft 7 kts
2026-04-16 23:57 30.49647 -81.69924 29 ft 10 kts 70°
2026-04-16 23:58 30.49668 -81.69842 30 ft 16 kts 72°
2026-04-16 23:58 30.49790 -81.69444 32 ft 91 kts 71°
2026-04-16 23:58 30.50049 -81.68593 166 ft 125 kts 76°
2026-04-16 23:58 30.50328 -81.67575 481 ft 138 kts 77°
2026-04-16 23:59 30.50628 -81.66483 743 ft 150 kts 76°
2026-04-16 23:59 30.50947 -81.65303 971 ft 153 kts 76°
2026-04-16 23:59 30.51283 -81.64126 1222 ft 154 kts 76°
2026-04-16 23:59 30.51639 -81.62971 1461 ft 155 kts 75°
2026-04-17 00:00 30.52205 -81.61883 1702 ft 157 kts 58°
2026-04-17 00:00 30.52851 -81.60850 1946 ft 158 kts 58°
2026-04-17 00:00 30.53479 -81.59794 2189 ft 159 kts 59°
2026-04-17 00:00 30.54096 -81.58749 2430 ft 159 kts 58°
2026-04-17 00:01 30.54717 -81.57680 2683 ft 160 kts 57°
2026-04-17 00:01 30.55351 -81.56599 2923 ft 161 kts 57°
2026-04-17 00:01 30.55977 -81.55528 3191 ft 159 kts 55°
2026-04-17 00:01 30.56604 -81.54455 3453 ft 163 kts 55°
2026-04-17 00:02 30.57240 -81.53374 3694 ft 166 kts 54°
2026-04-17 00:02 30.57885 -81.52269 3933 ft 166 kts 53°
2026-04-17 00:02 30.58540 -81.51154 4179 ft 166 kts 53°
2026-04-17 00:02 30.59183 -81.50053 4429 ft 166 kts 53°
2026-04-17 00:03 30.59832 -81.48937 4680 ft 167 kts 53°
2026-04-17 00:03 30.60489 -81.47812 4927 ft 168 kts 52°
2026-04-17 00:03 30.61142 -81.46687 5172 ft 168 kts 52°
2026-04-17 00:03 30.61805 -81.45564 5419 ft 169 kts 52°
2026-04-17 00:04 30.62461 -81.44441 5656 ft 170 kts 52°
2026-04-17 00:04 30.63122 -81.43297 5904 ft 171 kts 53°
2026-04-17 00:04 30.63796 -81.42149 6152 ft 171 kts 54°
2026-04-17 00:04 30.64456 -81.41020 6400 ft 171 kts 54°
2026-04-17 00:05 30.65126 -81.39872 6639 ft 171 kts 54°
2026-04-17 00:05 30.65796 -81.38719 6874 ft 171 kts 54°
2026-04-17 00:05 30.66474 -81.37579 7109 ft 171 kts 49°
2026-04-17 00:05 30.67431 -81.36856 7337 ft 165 kts 14°
2026-04-17 00:06 30.68516 -81.36415 7579 ft 165 kts 16°
2026-04-17 00:06 30.69598 -81.35950 7818 ft 165 kts 15°
2026-04-17 00:06 30.70683 -81.35490 8060 ft 165 kts 15°
2026-04-17 00:06 30.71757 -81.35036 8301 ft 165 kts 15°
2026-04-17 00:07 30.72842 -81.34577 8546 ft 166 kts 15°
2026-04-17 00:07 30.73916 -81.34123 8790 ft 166 kts 15°
2026-04-17 00:07 30.75001 -81.33663 9038 ft 165 kts 15°
2026-04-17 00:07 30.76086 -81.33204 9284 ft 165 kts 15°
2026-04-17 00:08 30.77170 -81.32747 9538 ft 165 kts 15°
2026-04-17 00:08 30.78255 -81.32287 9791 ft 166 kts 15°
2026-04-17 00:08 30.79329 -81.31831 10036 ft 166 kts 16°
2026-04-17 00:08 30.80420 -81.31369 10265 ft 166 kts 15°
2026-04-17 00:09 30.81508 -81.30908 10495 ft 167 kts 15°
2026-04-17 00:09 30.82587 -81.30450 10723 ft 167 kts 15°
2026-04-17 00:09 30.83689 -81.29984 10956 ft 168 kts 15°
2026-04-17 00:09 30.84790 -81.29517 11191 ft 169 kts 15°
2026-04-17 00:10 30.85897 -81.29047 11423 ft 170 kts 15°
2026-04-17 00:10 30.87012 -81.28574 11661 ft 171 kts 15°
2026-04-17 00:10 30.88120 -81.28104 11898 ft 171 kts 14°
2026-04-17 00:10 30.89244 -81.27626 12140 ft 172 kts 15°
2026-04-17 00:11 30.90372 -81.27147 12387 ft 172 kts 14°
2026-04-17 00:11 30.91501 -81.26667 12632 ft 173 kts 14°
2026-04-17 00:11 30.92637 -81.26184 12879 ft 174 kts 15°
2026-04-17 00:11 30.93763 -81.25705 13125 ft 174 kts 14°
2026-04-17 00:12 30.94911 -81.25218 13369 ft 175 kts 13°
2026-04-17 00:12 30.96061 -81.24729 13621 ft 177 kts 14°
2026-04-17 00:12 30.97224 -81.24234 13875 ft 177 kts 14°
2026-04-17 00:12 30.98376 -81.23744 14102 ft 178 kts 14°
2026-04-17 00:13 30.99551 -81.23243 14333 ft 179 kts 14°
2026-04-17 00:13 31.00729 -81.22742 14562 ft 180 kts 14°
2026-04-17 00:13 31.01913 -81.22238 14792 ft 181 kts 14°
2026-04-17 00:13 31.03085 -81.21738 15020 ft 182 kts 14°
2026-04-17 00:14 31.04282 -81.21228 15253 ft 183 kts 14°
2026-04-17 00:14 31.05486 -81.20715 15490 ft 184 kts 14°
2026-04-17 00:14 31.06698 -81.20199 15728 ft 185 kts 14°
2026-04-17 00:14 31.07917 -81.19678 15970 ft 186 kts 14°
2026-04-17 00:15 31.09122 -81.19164 16207 ft 187 kts 14°
2026-04-17 00:15 31.10352 -81.18640 16450 ft 188 kts 15°
2026-04-17 00:15 31.11593 -81.18109 16698 ft 189 kts 15°
2026-04-17 00:15 31.12832 -81.17581 16950 ft 190 kts 14°
2026-04-17 00:16 31.14111 -81.17037 17009 ft 202 kts 15°
2026-04-17 00:16 31.15468 -81.16458 17017 ft 213 kts 15°
2026-04-17 00:16 31.16871 -81.15857 17019 ft 221 kts 15°
2026-04-17 00:16 31.18343 -81.15226 17021 ft 227 kts 16°
2026-04-17 00:17 31.19844 -81.14583 17020 ft 231 kts 16°
2026-04-17 00:17 31.21366 -81.13932 17019 ft 234 kts 16°
2026-04-17 00:17 31.22892 -81.13279 17018 ft 237 kts 16°
2026-04-17 00:17 31.24447 -81.12613 17017 ft 238 kts 16°
2026-04-17 00:18 31.26013 -81.11942 17016 ft 239 kts 16°
2026-04-17 00:18 31.27579 -81.11271 17020 ft 240 kts 16°
2026-04-17 00:18 31.29132 -81.10605 17020 ft 241 kts 16°
2026-04-17 00:18 31.30709 -81.09929 17020 ft 241 kts 16°
2026-04-17 00:19 31.32287 -81.09252 17022 ft 241 kts 16°
2026-04-17 00:19 31.33868 -81.08574 17017 ft 242 kts 16°
2026-04-17 00:19 31.35432 -81.07903 17018 ft 242 kts 16°
2026-04-17 00:19 31.37018 -81.07222 17019 ft 242 kts 16°
2026-04-17 00:20 31.38601 -81.06542 17018 ft 242 kts 16°
2026-04-17 00:20 31.40180 -81.05864 17021 ft 242 kts 16°
2026-04-17 00:20 31.41763 -81.05183 17021 ft 242 kts 16°
2026-04-17 00:20 31.43324 -81.04512 17013 ft 242 kts 16°
2026-04-17 00:21 31.44904 -81.03833 17014 ft 242 kts 16°
2026-04-17 00:21 31.46489 -81.03151 17014 ft 242 kts 16°
2026-04-17 00:21 31.48073 -81.02469 17015 ft 242 kts 16°
2026-04-17 00:21 31.49660 -81.01786 17013 ft 242 kts 16°
2026-04-17 00:22 31.52815 -81.00427 17012 ft 243 kts 16°
2026-04-17 00:22 31.54404 -80.99742 17007 ft 243 kts 16°
2026-04-17 00:22 31.55998 -80.99054 17007 ft 243 kts 16°
2026-04-17 00:23 31.57584 -80.98370 17011 ft 243 kts 16°
2026-04-17 00:23 31.59177 -80.97683 17011 ft 243 kts 16°
2026-04-17 00:23 31.60749 -80.97005 17011 ft 243 kts 16°
2026-04-17 00:23 31.62333 -80.96321 17011 ft 243 kts 16°
2026-04-17 00:24 31.63918 -80.95636 17010 ft 243 kts 16°
2026-04-17 00:24 31.65509 -80.94949 17005 ft 243 kts 16°
2026-04-17 00:24 31.67076 -80.94271 17005 ft 243 kts 16°
2026-04-17 00:24 31.68663 -80.93585 17005 ft 243 kts 16°
2026-04-17 00:25 31.70248 -80.92899 17005 ft 243 kts 16°
2026-04-17 00:25 31.71835 -80.92212 17004 ft 243 kts 16°
2026-04-17 00:25 31.73405 -80.91533 17002 ft 243 kts 16°
2026-04-17 00:25 31.74993 -80.90845 17005 ft 243 kts 16°
2026-04-17 00:26 31.76579 -80.90158 17000 ft 243 kts 16°
2026-04-17 00:26 31.78173 -80.89467 16999 ft 243 kts 16°
2026-04-17 00:26 31.79764 -80.88778 16998 ft 243 kts 16°
2026-04-17 00:26 31.81329 -80.88098 16997 ft 243 kts 16°
2026-04-17 00:27 31.82920 -80.87409 16994 ft 243 kts 16°
2026-04-17 00:27 31.84459 -80.86553 16992 ft 246 kts 29°
2026-04-17 00:27 31.85882 -80.85430 16989 ft 246 kts 31°
2026-04-17 00:27 31.87309 -80.84295 16990 ft 246 kts 30°
2026-04-17 00:28 31.88739 -80.83184 16991 ft 246 kts 30°
2026-04-17 00:28 31.90156 -80.82086 16991 ft 246 kts 30°
2026-04-17 00:28 31.91586 -80.80974 16992 ft 246 kts 30°
2026-04-17 00:28 31.93016 -80.79860 16992 ft 247 kts 30°
2026-04-17 00:29 31.94446 -80.78745 17003 ft 247 kts 30°
2026-04-17 00:29 31.95877 -80.77631 17002 ft 247 kts 30°
2026-04-17 00:29 31.97311 -80.76512 17003 ft 247 kts 30°
2026-04-17 00:29 31.98743 -80.75396 17008 ft 247 kts 30°
2026-04-17 00:30 32.00177 -80.74277 17010 ft 247 kts 30°
2026-04-17 00:30 32.01611 -80.73156 17009 ft 247 kts 30°
2026-04-17 00:30 32.03037 -80.72041 17010 ft 248 kts 30°
2026-04-17 00:30 32.04474 -80.70920 17009 ft 248 kts 30°
2026-04-17 00:31 32.05919 -80.69793 17013 ft 248 kts 30°
2026-04-17 00:31 32.07342 -80.68682 17015 ft 248 kts 30°
2026-04-17 00:31 32.08784 -80.67554 17016 ft 248 kts 30°
2026-04-17 00:31 32.10223 -80.66427 17015 ft 248 kts 30°
2026-04-17 00:32 32.11666 -80.65299 17017 ft 248 kts 30°
2026-04-17 00:32 32.13109 -80.64169 17018 ft 248 kts 30°
2026-04-17 00:32 32.14548 -80.63042 17018 ft 248 kts 30°
2026-04-17 00:32 32.15991 -80.61911 17006 ft 248 kts 30°
2026-04-17 00:33 32.17415 -80.60795 17012 ft 248 kts 30°
2026-04-17 00:33 32.18858 -80.59664 17012 ft 248 kts 30°
2026-04-17 00:33 32.20301 -80.58532 17012 ft 248 kts 30°
2026-04-17 00:33 32.21744 -80.57400 17011 ft 248 kts 30°
2026-04-17 00:34 32.23170 -80.56280 17011 ft 248 kts 30°
2026-04-17 00:34 32.24608 -80.55151 17011 ft 248 kts 30°
2026-04-17 00:34 32.26053 -80.54016 17011 ft 248 kts 30°
2026-04-17 00:34 32.27489 -80.52888 17008 ft 249 kts 30°
2026-04-17 00:35 32.28936 -80.51750 17008 ft 249 kts 30°
2026-04-17 00:35 32.30360 -80.50629 17008 ft 249 kts 30°
2026-04-17 00:35 32.31804 -80.49493 17008 ft 249 kts 30°
2026-04-17 00:35 32.33249 -80.48356 17008 ft 249 kts 30°
2026-04-17 00:36 32.34693 -80.47219 17009 ft 249 kts 30°
2026-04-17 00:36 32.36125 -80.46091 17011 ft 249 kts 30°
2026-04-17 00:36 32.37569 -80.44953 17010 ft 249 kts 30°
2026-04-17 00:36 32.39018 -80.43810 17010 ft 249 kts 30°
2026-04-17 00:37 32.40446 -80.42686 17010 ft 249 kts 30°
2026-04-17 00:37 32.41895 -80.41541 17009 ft 249 kts 30°
2026-04-17 00:37 32.43348 -80.40395 17010 ft 249 kts 30°
2026-04-17 00:37 32.44775 -80.39267 17009 ft 249 kts 30°
2026-04-17 00:38 32.46218 -80.38128 17006 ft 249 kts 30°
2026-04-17 00:38 32.47661 -80.36988 17001 ft 249 kts 30°
2026-04-17 00:38 32.49110 -80.35842 17003 ft 249 kts 30°
2026-04-17 00:38 32.50553 -80.34701 17004 ft 249 kts 30°
2026-04-17 00:39 32.51999 -80.33557 17010 ft 250 kts 30°
2026-04-17 00:39 32.53429 -80.32425 17002 ft 250 kts 30°
2026-04-17 00:39 32.54880 -80.31277 17003 ft 250 kts 30°
2026-04-17 00:39 32.56330 -80.30128 17003 ft 250 kts 30°
2026-04-17 00:40 32.57781 -80.28978 17000 ft 250 kts 30°
2026-04-17 00:40 32.59213 -80.27843 17001 ft 250 kts 30°
2026-04-17 00:40 32.60668 -80.26689 17001 ft 250 kts 30°
2026-04-17 00:40 32.62119 -80.25538 17002 ft 250 kts 30°
2026-04-17 00:41 32.63559 -80.24396 16807 ft 254 kts 30°
2026-04-17 00:41 32.64979 -80.23260 16309 ft 238 kts 30°
2026-04-17 00:41 32.66320 -80.22192 15815 ft 227 kts 29°
2026-04-17 00:41 32.67616 -80.21166 15323 ft 219 kts 29°
2026-04-17 00:42 32.68870 -80.20171 14851 ft 214 kts 29°
2026-04-17 00:42 32.70096 -80.19196 14382 ft 210 kts 29°
2026-04-17 00:42 32.71284 -80.18251 13930 ft 206 kts 28°
2026-04-17 00:42 32.72470 -80.17308 13423 ft 203 kts 28°
2026-04-17 00:43 32.73642 -80.16376 12915 ft 201 kts 29°
2026-04-17 00:43 32.74412 -80.15763 12584 ft 200 kts 29°
2026-04-17 00:43 32.75948 -80.14597 11935 ft 195 kts 22°
2026-04-17 00:43 32.77149 -80.13853 11462 ft 193 kts 24°
2026-04-17 00:44 32.77932 -80.13346 11138 ft 192 kts 24°
2026-04-17 00:44 32.79484 -80.12338 10519 ft 190 kts 24°
2026-04-17 00:44 32.80267 -80.11831 10208 ft 189 kts 24°
2026-04-17 00:44 32.81405 -80.11098 9734 ft 187 kts 24°
2026-04-17 00:45 32.82434 -80.10147 9230 ft 190 kts 46°
2026-04-17 00:45 32.83335 -80.08995 8727 ft 188 kts 36°
2026-04-17 00:45 32.84391 -80.08139 8248 ft 185 kts 27°
2026-04-17 00:45 32.85500 -80.07347 7763 ft 185 kts 27°
2026-04-17 00:46 32.86600 -80.06525 7283 ft 185 kts 28°
2026-04-17 00:46 32.87688 -80.05700 6817 ft 186 kts 28°
2026-04-17 00:46 32.88850 -80.05185 6344 ft 177 kts 356°
2026-04-17 00:46 32.89987 -80.05550 5858 ft 168 kts 330°
2026-04-17 00:47 32.91045 -80.06143 5375 ft 167 kts 329°
2026-04-17 00:47 32.92087 -80.06745 4896 ft 165 kts 329°
2026-04-17 00:47 32.93117 -80.07351 4403 ft 164 kts 329°
2026-04-17 00:47 32.94125 -80.07952 3921 ft 163 kts 329°
2026-04-17 00:48 32.95138 -80.08569 3442 ft 163 kts 329°
2026-04-17 00:48 32.96150 -80.09192 3019 ft 161 kts 329°
2026-04-17 00:48 32.97086 -80.09752 2991 ft 148 kts 328°
2026-04-17 00:48 32.98054 -80.10330 2999 ft 164 kts 329°
2026-04-17 00:49 32.99106 -80.10963 3007 ft 174 kts 329°
2026-04-17 00:49 33.00206 -80.11632 3005 ft 181 kts 328°
2026-04-17 00:49 33.01339 -80.12325 3003 ft 183 kts 324°
2026-04-17 00:49 33.02163 -80.13418 3006 ft 177 kts 298°
2026-04-17 00:50 33.02784 -80.14684 3001 ft 177 kts 297°
2026-04-17 00:50 33.03425 -80.15915 2997 ft 179 kts 307°
2026-04-17 00:50 33.04378 -80.16897 3003 ft 182 kts 318°
2026-04-17 00:50 33.05391 -80.17807 2990 ft 182 kts 319°
2026-04-17 00:51 33.06412 -80.18712 2989 ft 182 kts 319°
2026-04-17 00:51 33.07438 -80.19579 2984 ft 185 kts 329°
2026-04-17 00:51 33.08734 -80.19683 2982 ft 196 kts 15°
2026-04-17 00:51 33.09776 -80.18644 2976 ft 201 kts 61°
2026-04-17 00:52 33.09956 -80.17037 2976 ft 197 kts 108°
2026-04-17 00:52 33.09204 -80.15782 2976 ft 187 kts 153°
2026-04-17 00:52 33.08006 -80.15254 2993 ft 184 kts 169°
2026-04-17 00:52 33.06756 -80.14861 2989 ft 185 kts 169°
2026-04-17 00:53 33.05504 -80.14476 2987 ft 186 kts 169°
2026-04-17 00:53 33.04236 -80.14101 2909 ft 191 kts 171°
2026-04-17 00:53 33.02963 -80.13611 2679 ft 200 kts 157°
2026-04-17 00:53 33.01743 -80.12758 2414 ft 198 kts 152°
2026-04-17 00:54 33.00641 -80.11920 2165 ft 176 kts 152°
2026-04-17 00:54 32.99665 -80.11170 1948 ft 158 kts 153°
2026-04-17 00:54 32.98778 -80.10495 1751 ft 145 kts 154°
2026-04-17 00:54 32.97952 -80.09872 1564 ft 138 kts 154°
2026-04-17 00:55 32.97172 -80.09274 1394 ft 126 kts 153°
2026-04-17 00:55 32.96481 -80.08745 1239 ft 112 kts 154°
2026-04-17 00:55 32.95850 -80.08269 1095 ft 105 kts 155°
2026-04-17 00:55 32.95227 -80.07796 968 ft 108 kts 155°
2026-04-17 00:56 32.94581 -80.07303 827 ft 109 kts 151°
2026-04-17 00:56 32.93954 -80.06830 696 ft 105 kts 152°
2026-04-17 00:56 32.93339 -80.06364 566 ft 105 kts 151°
2026-04-17 00:56 32.92728 -80.05886 424 ft 105 kts 152°
2026-04-17 00:57 32.92109 -80.05423 287 ft 108 kts 150°
2026-04-17 00:57 32.91477 -80.04941 142 ft 107 kts 151°
2026-04-17 00:57 32.90922 -80.04516 37 ft 79 kts 154°
2026-04-17 00:57 32.90522 -80.04250 33 ft 50 kts 143°
2026-04-17 00:58 32.90270 -80.04060 35 ft 40 kts 151°
2026-04-17 00:58 32.90020 -80.03951 35 ft 35 kts 172°
2026-04-17 00:58 32.89927 -80.03939 35 ft 12 kts 175°